This is the latest recevied weather packets stored in our database for station/object NQ9F. If no packets are shown the sender has not sent any weather packets the latest 10 day(s).
| Time | Temp. | Humidity | Pressure | Rain* | Wind** | Luminosity | Snow |
|---|---|---|---|---|---|---|---|
| 1777922052 | 26.11° C | 61% | 1009 hPa | 0 mm | - | 869 W/m² | - |
| 1777921746 | 26.11° C | 60% | 1009.2 hPa | 0 mm | - | 894 W/m² | - |
| 1777921443 | 25.56° C | 61% | 1009.2 hPa | 0 mm | - | 952 W/m² | - |
| 1777921140 | 25° C | 61% | 1009.4 hPa | 0 mm | - | 1021 W/m² | - |
| 1777920837 | 25.56° C | 62% | 1009.7 hPa | 0 mm | - | 1032 W/m² | - |
| 1777920533 | 25.56° C | 62% | 1009.7 hPa | 0 mm | - | 883 W/m² | - |
| 1777920229 | 25° C | 62% | 1009.8 hPa | 0 mm | - | 191 W/m² | - |
| 1777919925 | 25.56° C | 62% | 1009.8 hPa | 0 mm | - | 563 W/m² | - |
| 1777919623 | 25.56° C | 62% | 1009.8 hPa | 0 mm | - | 187 W/m² | - |
| 1777919320 | 25° C | 64% | 1009.8 hPa | 0 mm | - | 1007 W/m² | - |
| 1777919017 | 25° C | 63% | 1010.1 hPa | 0 mm | - | 109 W/m² | - |
| 1777918714 | 24.44° C | 64% | 1010.2 hPa | 0 mm | - | 115 W/m² | - |
| 1777918411 | 24.44° C | 64% | 1010.1 hPa | 0 mm | - | 690 W/m² | - |
| 1777918110 | 24.44° C | 63% | 1010 hPa | 0 mm | - | 857 W/m² | - |
| 1777917808 | 24.44° C | 63% | 1010.3 hPa | 0 mm | - | 169 W/m² | - |
| 1777917506 | 23.89° C | 64% | 1010.2 hPa | 0 mm | - | 374 W/m² | - |
| 1777917202 | 23.89° C | 64% | 1010.5 hPa | 0 mm | - | 310 W/m² | - |
| 1777916901 | 23.89° C | 65% | 1010.5 hPa | 0 mm | - | 213 W/m² | - |
| 1777916598 | 23.89° C | 64% | 1010.5 hPa | 0 mm | - | 517 W/m² | - |
| 1777916295 | 23.33° C | 66% | 1010.7 hPa | 0 mm | - | 933 W/m² | - |
| 1777915991 | 23.89° C | 66% | 1010.8 hPa | 0 mm | - | 785 W/m² | - |
| 1777915688 | 23.33° C | 67% | 1010.7 hPa | 0 mm | - | 732 W/m² | - |
| 1777915385 | 23.33° C | 66% | 1011 hPa | 0 mm | - | 787 W/m² | - |
| 1777915080 | 23.33° C | 66% | 1011 hPa | 0 mm | - | 930 W/m² | - |
| 1777914778 | 23.33° C | 66% | 1011.2 hPa | 0 mm | - | 841 W/m² | - |
* Rain latest hour (hover to see other rain measurements)
** Current wind speed in m/s (hover to see current wind gust speed)